This is the latest recevied weather packets stored in our database for station/object N9OJR. If no packets are shown the sender has not sent any weather packets the latest 10 day(s).
| Time | Temp. | Humidity | Pressure | Rain* | Wind** | Luminosity | Snow |
|---|---|---|---|---|---|---|---|
| 1778045337 | 8.89° C | 99% | 1004.1 hPa | 3.05 mm | - | 0 W/m² | - |
| 1778045035 | 8.89° C | 99% | 1004.2 hPa | 1.27 mm | - | 0 W/m² | - |
| 1778044733 | 8.89° C | 99% | 1004.2 hPa | 1.78 mm | - | 0 W/m² | - |
| 1778044429 | 8.89° C | 99% | 1004.1 hPa | 1.78 mm | - | 0 W/m² | - |
| 1778044126 | 8.89° C | 99% | 1004.1 hPa | 1.27 mm | - | 0 W/m² | - |
| 1778043823 | 8.89° C | 99% | 1004.5 hPa | 3.05 mm | - | 0 W/m² | - |
| 1778043520 | 8.89° C | 99% | 1004.2 hPa | 3.05 mm | - | 0 W/m² | - |
| 1778043217 | 8.89° C | 99% | 1004.3 hPa | 1.27 mm | - | 0 W/m² | - |
| 1778042914 | 8.89° C | 99% | 1004.5 hPa | 0 mm | - | 0 W/m² | - |
| 1778042612 | 8.89° C | 99% | 1004.5 hPa | 1.78 mm | - | 0 W/m² | - |
| 1778042308 | 8.89° C | 99% | 1004.3 hPa | 1.78 mm | - | 0 W/m² | - |
| 1778042006 | 8.89° C | 99% | 1004.5 hPa | 1.27 mm | - | 0 W/m² | - |
| 1778041704 | 8.89° C | 99% | 1004.8 hPa | 1.27 mm | - | 0 W/m² | - |
| 1778041403 | 8.89° C | 99% | 1004.5 hPa | 1.78 mm | - | 0 W/m² | - |
| 1778041101 | 8.89° C | 99% | 1004.8 hPa | 3.05 mm | - | 0 W/m² | - |
| 1778040798 | 8.89° C | 99% | 1004.7 hPa | 3.05 mm | - | 0 W/m² | - |
| 1778040498 | 8.89° C | 99% | 1004.8 hPa | 1.78 mm | - | 0 W/m² | - |
| 1778040192 | 8.89° C | 99% | 1004.8 hPa | 1.78 mm | - | 0 W/m² | - |
| 1778039888 | 8.89° C | 99% | 1005 hPa | 3.05 mm | - | 0 W/m² | - |
| 1778039586 | 8.89° C | 99% | 1004.9 hPa | 3.05 mm | - | 0 W/m² | - |
| 1778039283 | 9.44° C | 99% | 1004.8 hPa | 4.83 mm | - | 0 W/m² | - |
| 1778038980 | 9.44° C | 99% | 1004.9 hPa | 6.1 mm | - | 0 W/m² | - |
| 1778038677 | 9.44° C | 99% | 1004.9 hPa | 4.32 mm | - | 0 W/m² | - |
| 1778038374 | 9.44° C | 99% | 1005 hPa | 3.05 mm | - | 0 W/m² | - |
| 1778038071 | 9.44° C | 99% | 1004.8 hPa | 1.78 mm | - | 0 W/m² | - |
* Rain latest hour (hover to see other rain measurements)
** Current wind speed in m/s (hover to see current wind gust speed)